Location: Leipzig
(51.3397°N, 12.3731°E)
Time: 18:56:48
(UTC+01:00)

ISS - Pass Details

Date: 24 October 2025
Orbit: 414 x 421 km, 51.6° (Epoch: 07 November)

Event Time Altitude Azimuth Distance (km) Brightness Sun altitude
Exits shadow 07:10:14 - 275° (W) 1,584 -1.5 -6.8°
Reaches altitude 10° 07:10:25 10° 276° (W) 1,504 -1.6 -6.8°
Maximum altitude 07:13:48 85° 1° (N) 428 -3.7 -6.3°
Drops below altitude 10° 07:17:12 10° 94° (E) 1,507 0.9 -5.8°
Sets 07:19:18 0° 95° (E) 2,372 2.6 -5.4°
